This is the latest recevied weather packets stored in our database for station/object WB4ROX. If no packets are shown the sender has not sent any weather packets the latest 10 day(s).
| Time | Temp. | Humidity | Pressure | Rain* | Wind** | Luminosity | Snow |
|---|---|---|---|---|---|---|---|
| 1777586769 | 10.56° C | 50% | 1014.1 hPa | 0 mm | - | 290 W/m² | - |
| 1777586465 | 10° C | 51% | 1013.9 hPa | 0 mm | - | 299 W/m² | - |
| 1777586160 | 10.56° C | 50% | 1014.3 hPa | 0 mm | - | 312 W/m² | - |
| 1777585858 | 10.56° C | 49% | 1014.1 hPa | 0 mm | - | 326 W/m² | - |
| 1777585558 | 10.56° C | 50% | 1013.9 hPa | 0 mm | - | 343 W/m² | - |
| 1777585254 | 10° C | 50% | 1014.1 hPa | 0 mm | - | 357 W/m² | - |
| 1777584949 | 10° C | 51% | 1014.6 hPa | 0 mm | - | 375 W/m² | - |
| 1777584647 | 10° C | 49% | 1014.6 hPa | 0 mm | - | 410 W/m² | - |
| 1777584343 | 10° C | 50% | 1014.4 hPa | 0 mm | - | 409 W/m² | - |
| 1777584039 | 10° C | 50% | 1014.3 hPa | 0 mm | - | 423 W/m² | - |
| 1777583734 | 10.56° C | 51% | 1014.5 hPa | 0 mm | - | 439 W/m² | - |
| 1777583433 | 10.56° C | 50% | 1014.5 hPa | 0 mm | - | 456 W/m² | - |
| 1777583133 | 11.11° C | 48% | 1014.1 hPa | 0 mm | - | 471 W/m² | - |
| 1777582829 | 10° C | 52% | 1014.1 hPa | 0 mm | - | 487 W/m² | - |
| 1777582526 | 10° C | 51% | 1014.1 hPa | 0 mm | - | 501 W/m² | - |
| 1777582221 | 10° C | 49% | 1014 hPa | 0 mm | - | 519 W/m² | - |
| 1777581919 | 10° C | 50% | 1014.1 hPa | 0 mm | - | 534 W/m² | - |
| 1777581614 | 10° C | 49% | 1014.4 hPa | 0 mm | - | 551 W/m² | - |
| 1777581308 | 10° C | 49% | 1014 hPa | 0 mm | - | 566 W/m² | - |
| 1777581004 | 10.56° C | 49% | 1014 hPa | 0 mm | - | 580 W/m² | - |
| 1777580703 | 10.56° C | 50% | 1014.1 hPa | 0 mm | - | 591 W/m² | - |
| 1777580399 | 10.56° C | 49% | 1013.7 hPa | 0 mm | - | 604 W/m² | - |
| 1777580095 | 10.56° C | 47% | 1013.9 hPa | 0 mm | - | 623 W/m² | - |
| 1777579792 | 10° C | 50% | 1014 hPa | 0 mm | - | 642 W/m² | - |
| 1777579490 | 10° C | 51% | 1014.1 hPa | 0 mm | - | 594 W/m² | - |
* Rain latest hour (hover to see other rain measurements)
** Current wind speed in m/s (hover to see current wind gust speed)